Weather History for KISP - July, 2013

Change the Weather History Date:

Monday, July 1, 2013

  Actual Average Record
Temperature  
Mean Temperature 75 °F 72 °F  
Max Temperature 77 °F 81 °F 89 °F (2012)
Min Temperature 72 °F 65 °F 50 °F (1988)
Degree Days  
Heating Degree Days 0 0  
Month to date heating degree days 0 0  
Since 1 June heating degree days 12 38  
Since 1 July heating degree days 0 0  
Cooling Degree Days 10 8  
Month to date cooling degree days 10 8  
Year to date cooling degree days 211 172  
Since 1 June cooling degree days 179 148  
Growing Degree Days 25 (Base 50)    
Moisture  
Dew Point 71 °F    
Average Humidity 91    
Maximum Humidity 94    
Minimum Humidity 87    
Precipitation  
Precipitation 0.18 in 0.10 in 0.92 in (1984)
Month to date precipitation 0.18 0.10  
Year to date precipitation 23.68 23.83  
Snow  
Snow 0.00 in 0.00 in - ()
Month to date snowfall 0.0 0.0  
Since 1 July snowfall 0.0 0.0  
Snow Depth 0.00 in    
Sea Level Pressure  
Sea Level Pressure 29.98 in    
Wind  
Wind Speed 10 mph (SSW)    
Max Wind Speed 20 mph    
Max Gust Speed 25 mph    
Visibility 6 miles    
Events Rain    
T = Trace of Precipitation, MM = Missing Value Source: NWS Daily Summary

Daily Weather History Graph

Daily Weather History Graph

Search for Another Location

Airport or City:

Trip Planner

Search our weather history database for the weather conditions in past years. The results will help you decide how hot, cold, wet, or windy it might be!

Date:

Astronomy

Jul. 01, 2013 Rise Set
Actual Time 5:24 AM EDT 8:27 PM EDT
Civil Twilight 4:51 AM EDT 9:00 PM EDT
Nautical Twilight 4:09 AM EDT 9:43 PM EDT
Astronomical Twilight 3:19 AM EDT 10:32 PM EDT
Moon 12:54 AM EDT (7/1) 2:39 PM EDT (7/1)
Length of Visible Light 16h 09m
Length of Day
15h 02m
Waning Crescent, 35% of the Moon is Illuminated
Jul 1
Waning Crescent
Jul 8
New
Jul 15
First Quarter
Jul 22
Full
Jul 29
Last Quarter

Hourly Weather History & Observations

Time (EDT) Temp. Dew Point Humidity Pressure Visibility Wind Dir Wind Speed Gust Speed Precip Events Conditions
12:31 AM 73.4 °F 71.6 °F 94% 29.93 in 10.0 mi SSW 9.2 mph - N/A   Overcast
12:56 AM 73.0 °F 71.1 °F 93% 29.93 in 10.0 mi SSW 9.2 mph - N/A   Overcast
1:33 AM 73.4 °F 71.6 °F 94% 29.93 in 10.0 mi SW 6.9 mph - N/A   Overcast
1:42 AM 73.4 °F 71.6 °F 94% 29.93 in 10.0 mi SSW 6.9 mph - N/A   Overcast
1:56 AM 73.0 °F 71.1 °F 93% 29.93 in 10.0 mi SSW 9.2 mph - N/A   Overcast
2:56 AM 73.0 °F 71.1 °F 93% 29.92 in 3.0 mi South 8.1 mph - N/A   Overcast
3:08 AM 73.4 °F 71.6 °F 94% 29.92 in 4.0 mi South 9.2 mph - 0.01 in   Overcast
3:56 AM 73.0 °F 71.1 °F 93% 29.92 in 4.0 mi South 8.1 mph - 0.01 in   Overcast
4:56 AM 73.0 °F 71.1 °F 93% 29.92 in 3.0 mi South 8.1 mph - 0.01 in Rain Light Rain
5:08 AM 73.4 °F 71.6 °F 94% 29.92 in 2.5 mi South 6.9 mph - 0.01 in Rain Light Rain
5:38 AM 73.4 °F 71.6 °F 94% 29.93 in 3.0 mi SSW 10.4 mph - 0.01 in   Overcast
5:50 AM 73.4 °F 71.6 °F 94% 29.94 in 0.5 mi SW 8.1 mph - 0.01 in   Light Drizzle
5:56 AM 73.0 °F 71.1 °F 93% 29.94 in 0.5 mi SSW 8.1 mph - 0.01 in   Light Drizzle
6:56 AM 73.0 °F 71.1 °F 93% 29.95 in 0.5 mi South 5.8 mph - 0.02 in   Light Drizzle
7:56 AM 73.0 °F 72.0 °F 96% 29.95 in 0.2 mi South 10.4 mph 17.3 mph 0.02 in   Light Drizzle
8:56 AM 73.0 °F 72.0 °F 96% 29.97 in 0.2 mi SSW 12.7 mph - 0.00 in   Light Drizzle
9:39 AM 73.4 °F 71.6 °F 94% 29.97 in 0.5 mi SSW 11.5 mph - 0.00 in   Light Drizzle
9:56 AM 73.9 °F 72.0 °F 93% 29.97 in 0.8 mi SSW 10.4 mph - 0.00 in   Overcast
10:56 AM 75.0 °F 73.0 °F 94% 29.98 in 1.5 mi SSW 13.8 mph - N/A   Overcast
11:56 AM 75.9 °F 73.0 °F 91% 29.99 in 2.0 mi SSW 10.4 mph - N/A   Overcast
12:51 PM 77.0 °F 73.4 °F 89% 30.00 in 2.0 mi SSW 13.8 mph - N/A   Overcast
12:56 PM 75.9 °F 72.0 °F 87% 30.00 in 2.0 mi SSW 10.4 mph - N/A   Overcast
1:50 PM 75.2 °F 71.6 °F 89% 30.00 in 5.0 mi SSW 10.4 mph - 0.00 in   Haze
1:56 PM 75.0 °F 72.0 °F 90% 30.00 in 5.0 mi SW 8.1 mph - 0.00 in Rain Light Rain
2:17 PM 73.4 °F 71.6 °F 94% 30.00 in 1.0 mi South 8.1 mph - 0.04 in Rain Heavy Rain
2:33 PM 73.4 °F 71.6 °F 94% 30.00 in 5.0 mi SSW 5.8 mph - 0.11 in   Overcast
2:56 PM 75.0 °F 72.0 °F 90% 30.00 in 6.0 mi SSW 9.2 mph - 0.11 in   Overcast
3:56 PM 73.9 °F 71.1 °F 91% 30.01 in 6.0 mi South 12.7 mph 21.9 mph 0.00 in Rain Light Rain
4:35 PM 75.2 °F 71.6 °F 89% 29.98 in 10.0 mi South 6.9 mph - 0.00 in Rain Light Rain
4:56 PM 75.0 °F 71.1 °F 87% 29.99 in 10.0 mi South 6.9 mph - 0.00 in   Overcast
5:26 PM 75.2 °F 71.6 °F 89% 29.99 in 10.0 mi SSW 16.1 mph 20.7 mph N/A   Overcast
5:56 PM 75.0 °F 71.1 °F 87% 29.99 in 10.0 mi South 11.5 mph 20.7 mph N/A   Overcast
6:56 PM 73.9 °F 71.1 °F 91% 30.01 in 10.0 mi South 10.4 mph 20.7 mph N/A   Overcast
7:56 PM 73.9 °F 70.0 °F 87% 30.04 in 10.0 mi South 11.5 mph 20.7 mph 0.00 in   Overcast
8:56 PM 73.9 °F 71.1 °F 91% 30.04 in 10.0 mi South 10.4 mph - N/A   Overcast
9:56 PM 73.9 °F 71.1 °F 91% 30.06 in 10.0 mi South 11.5 mph - N/A   Overcast
10:56 PM 73.0 °F 70.0 °F 90% 30.06 in 10.0 mi South 9.2 mph - N/A   Overcast
11:18 PM 73.4 °F 69.8 °F 88% 30.06 in 10.0 mi South 8.1 mph - N/A   Overcast
11:56 PM 73.9 °F 70.0 °F 87% 30.06 in 10.0 mi SSW 12.7 mph 18.4 mph N/A   Overcast